Regional Weather Roundup
Issued by NWS State College, PA

Home | Current Version | Previous Version | Text Only | Print | Product List | Glossary Off
Versions: 1 2 3 4 5 6 7 8 9 10 11 12 13 14 15 16 17 18 19 20 21 22 23 24 25 26 27 28 29 30 31 32 33 34 35 36 37 38 39 40 41 42 43 44 45 46 47 48 49 50

000
ASUS41 KCTP 220410
RWRCTP

REGIONAL WEATHER ROUNDUP
NATIONAL WEATHER SERVICE STATE COLLEGE PA
1100 PM EST SAT JAN 21 2017

Note: "fair" indicates few or no clouds below 12,000 feet with no
significant weather and/or obstructions to visibility.

* = STATION THAT DOES NOT REPORT PRECIPITATION /E.G. RAIN...SNOW...ETC/
    THUNDER OR FOG.

PAZ002>004-007>009-013>016-020>023-029>032-220500-
WESTERN PENNSYLVANIA

CITY           SKY/WX    TMP DP  RH WIND       PRES   REMARKS
ERIE           PTCLDY    51  44  77 CALM      29.66S
MEADVILLE      CLOUDY    52  48  86 S5        29.70R
FRANKLIN*        N/A     52  48  87 SW6       29.71S
NEW CASTLE     LGT RAIN  52  50  93 CALM      29.72R
BEAVER COUNTY  NOT AVBL
BUTLER*        CLOUDY    52  48  87 CALM      29.74R
PITTSBURGH INT LGT RAIN  54  52  93 CALM      29.70S
PITTSBURGH     CLOUDY    57  48  72 S3        29.70S
INDIANA*       CLOUDY    48  48 100 CALM      29.75R
LATROBE        CLOUDY    50  50 100 CALM      29.73S
WASHINGTON CO* CLOUDY    48  46  93 CALM      29.71F
$$

PAZ004>006-010>012-017>019-024>028-033>037-041-042-045-046-049>053-220500-
CENTRAL PENNSYLVANIA

CITY           SKY/WX    TMP DP  RH WIND       PRES   REMARKS
BRADFORD       CLOUDY    46  46 100 SE3       29.71F FOG
DUBOIS         CLOUDY    51  45  79 SE3       29.71S
CLEARFIELD     CLOUDY    44  44 100 NE6       29.74S
JOHNSTOWN      CLOUDY    53  46  77 SW5       29.73S
ALTOONA        FOG       43  43 100 CALM      29.77S VSB 1/4
STATE COLLEGE  FOG       41  41 100 CALM      29.76F VSB 1/4
WILLIAMSPORT   MOCLDY    41  39  93 CALM      29.78F FOG
SELINSGROVE    FOG       42  41  96 CALM      29.79F VSB 1/4
FT INDIANTOWN  FOG       43  43 100 NE3       29.79F VSB 1/2
CAPITAL CITY   FOG       45  43  93 S3        29.79F VSB 1/2
HARRISBURG     FOG       42  42 100 S3        29.79F VSB 1/4
YORK           CLOUDY    45  45 100 CALM      29.78F FOG
$$

PAZ038>040-043-044-047-048-054-055-060>062-067>071-220500-
EASTERN PENNSYLVANIA

CITY           SKY/WX    TMP DP  RH WIND       PRES   REMARKS
SCRANTON       CLOUDY    42  41  96 CALM      29.77R
MOUNT POCONO   CLOUDY    40  38  93 NW3       29.75F FOG
ALLENTOWN      FOG       43  41  93 NW3       29.80S VSB 1/2
QUAKERTOWN*    CLOUDY    45  45 100 CALM      29.81S VSB 1/2
READING        FOG       44  44 100 CALM      29.80S VSB 1/2
LANCASTER      FOG       44  44 100 E5        29.78F VSB 1/4
COATESVILLE    FOG       43  43 100 CALM      29.81S VSB<1/4
POTTSTOWN      FOG       44  44 100 CALM      29.81F VSB 1/4
BLUE BELL      CLOUDY    43  43 100 CALM      29.79F VSB 1/4
DOYLESTOWN     FOG       45  44  97 CALM      29.80S VSB 1/2
WILLOW GROVE   NOT AVBL
NORTH PHILA    FOG       47  46  97 CALM      29.82F VSB 1/4
PHILADELPHIA   DRZL/FOG  45  44  97 CALM      29.81F VSB 3/4
$$



USA.gov is the U.S. government's official web portal to all federal, state and local government web resources and services.